Weather History for KNTU - March, 2013

Change the Weather History Date:

Thursday, March 14, 2013

  Actual Average Record
Temperature  
Mean Temperature 43 °F -  
Max Temperature 50 °F 54 °F 82 °F (2007)
Min Temperature 36 °F 37 °F 24 °F (2014)
Degree Days  
Heating Degree Days 22    
Moisture  
Dew Point 19 °F    
Average Humidity 41    
Maximum Humidity 57    
Minimum Humidity 26    
Precipitation  
Precipitation 0.00 in - - ()
Sea Level Pressure  
Sea Level Pressure 30.10 in    
Wind  
Wind Speed 14 mph (NW)    
Max Wind Speed 22 mph    
Max Gust Speed 28 mph    
Visibility 10 miles    
Events      
Averages and records for this station are not official NWS values.
T = Trace of Precipitation, MM = Missing Value Source: NWS Daily Summary

Daily Weather History Graph

Daily Weather History Graph

Search for Another Location

Airport or City:

Trip Planner

Search our weather history database for the weather conditions in past years. The results will help you decide how hot, cold, wet, or windy it might be!

Date:

Astronomy

Mar. 14, 2013 Rise Set
Actual Time 7:16 AM EDT 7:10 PM EDT
Civil Twilight 6:50 AM EDT 7:36 PM EDT
Nautical Twilight 6:20 AM EDT 8:06 PM EDT
Astronomical Twilight 5:50 AM EDT 8:37 PM EDT
Moon 8:33 AM EDT (3/14) 10:18 PM EDT (3/14)
Length of Visible Light 12h 46m
Length of Day
11h 54m
Waxing Crescent, 9% of the Moon is Illuminated
Mar 14
Waxing Crescent
Mar 19
First Quarter
Mar 27
Full
Apr 3
Last Quarter
Apr 10
New

Hourly Weather History & Observations

Time (EDT) Temp. Windchill Dew Point Humidity Pressure Visibility Wind Dir Wind Speed Gust Speed Precip Events Conditions
12:56 AM 43.0 °F 36.4 °F 26.1 °F 51% 30.05 in 10.0 mi NNW 12.7 mph - N/A   Mostly Cloudy
1:56 AM 41.0 °F 31.6 °F 19.0 °F 41% 30.06 in 10.0 mi NW 20.7 mph 26.5 mph N/A   Mostly Cloudy
2:56 AM 39.9 °F 31.4 °F 19.9 °F 45% 30.08 in 10.0 mi NNW 16.1 mph 23.0 mph N/A   Mostly Cloudy
3:56 AM 37.0 °F 28.9 °F 19.0 °F 48% 30.08 in 10.0 mi NNW 12.7 mph 24.2 mph N/A   Scattered Clouds
4:56 AM 36.0 °F 27.1 °F 19.9 °F 52% 30.09 in 10.0 mi NNW 13.8 mph - N/A   Partly Cloudy
5:56 AM 36.0 °F 25.3 °F 17.1 °F 46% 30.10 in 10.0 mi NNW 19.6 mph - N/A   Partly Cloudy
6:56 AM 36.0 °F 26.3 °F 17.1 °F 46% 30.13 in 10.0 mi NNW 16.1 mph 26.5 mph N/A   Scattered Clouds
7:56 AM 36.0 °F 26.7 °F 19.0 °F 50% 30.14 in 10.0 mi NW 15.0 mph 21.9 mph N/A   Scattered Clouds
8:56 AM 37.9 °F 28.9 °F 21.0 °F 51% 30.16 in 10.0 mi NW 16.1 mph - N/A   Scattered Clouds
9:56 AM 39.9 °F 31.8 °F 19.9 °F 45% 30.17 in 10.0 mi NW 15.0 mph 23.0 mph N/A   Partly Cloudy
10:56 AM 42.1 °F 35.2 °F 19.9 °F 41% 30.16 in 10.0 mi NNW 12.7 mph 20.7 mph N/A   Partly Cloudy
11:56 AM 43.0 °F 36.8 °F 21.0 °F 42% 30.14 in 10.0 mi West 11.5 mph 24.2 mph N/A   Partly Cloudy
12:56 PM 45.0 °F 36.6 °F 19.0 °F 36% 30.13 in 10.0 mi WNW 21.9 mph 27.6 mph N/A   Partly Cloudy
1:56 PM 46.0 °F 39.3 °F 19.0 °F 34% 30.10 in 10.0 mi West 16.1 mph 25.3 mph N/A   Clear
2:56 PM 48.0 °F - 17.1 °F 29% 30.07 in 10.0 mi WNW 13.8 mph 26.5 mph N/A   Clear
3:56 PM 48.9 °F - 17.1 °F 28% 30.06 in 10.0 mi West 18.4 mph - N/A   Clear
4:56 PM 50.0 °F - 16.0 °F 26% 30.05 in 10.0 mi NW 15.0 mph 24.2 mph N/A   Partly Cloudy
5:56 PM 48.9 °F - 16.0 °F 27% 30.04 in 10.0 mi WNW 11.5 mph 23.0 mph N/A   Clear
6:56 PM 48.0 °F - 17.1 °F 29% 30.04 in 10.0 mi WNW 10.4 mph - N/A   Clear
7:56 PM 46.0 °F 41.9 °F 16.0 °F 30% 30.06 in 10.0 mi WNW 8.1 mph - N/A   Partly Cloudy
8:56 PM 44.1 °F 40.8 °F 18.0 °F 35% 30.08 in 10.0 mi West 5.8 mph - N/A   Clear
9:56 PM 42.1 °F 39.2 °F 21.0 °F 43% 30.08 in 10.0 mi West 4.6 mph - N/A   Clear
10:56 PM 41.0 °F - 19.9 °F 43% 30.10 in 10.0 mi Calm Calm - N/A   Clear
11:56 PM 37.0 °F - 23.0 °F 57% 30.11 in 10.0 mi Calm Calm - N/A   Clear